sat.trackr.live / text

‹ back to catalog

COSMOS 2439

NORAD 32956 · 2008-025D

PAYLOAD ACTIVE UNKNOWN

§ Identity

Operator
Country
CIS
Launch date
2008-05-23
Launch site
PLMSC
Launch vehicle
Mass (kg)
RCS (m²)
0.88

External: N2YO · Heavens-Above · Gunter

§ Orbital elements

Epoch: 2026-09-20T03:27:25.952832Z

Period
115.84 min
Inclination
82.5049°
Eccentricity
0.0022055
Mean motion
12.43071894 rev/d
Perigee alt
1,476.2 km
Apogee alt
1,511.0 km
Semi-major
7,871.7 km
B*
1.9225e-4
RAAN
298.7764°
Arg perigee
107.0987°
Mean anomaly
253.2511°
Rev number
83,151

§ Raw data

COSMOS 24391 32956U 08025D   26263.14405038  .00000037  00000+0  19225-3 0  99952 32956  82.5049 298.7764 0022055 107.0987 253.2511 12.43071894831510

JSON: /api/v1/satellites/32956 · /tle

For live sub-satellite position, see the globe view (requires WebGL).

§ Visibility from observer

Set your observer location to see the next 7 days of passes ≥ 10°. The values pass through the URL so the page stays shareable.

No JS? Fill the form by hand. The geolocation button needs JavaScript.